DELTA 1 DEB, 10660

Orbit data source: Space-Track

DELTA 1 DEB, 10660 is space debris in LEO originally from a launch on Thu, 29 Jul 1976 UTC launched from the Air Force Western Test Range (AFWTR). Debris objects in space refer to the collection of defunct objects orbiting the Earth. Examples of debris include non-operational satellites, rocket bodies, and fragments generated from explosions, collisions, or faulty payload assembly.

Loading next visibility...
Identifier
10660, 1976-077W
Orbit
LEO
Country
Flag of USUS
Related business
Manufacturer
Unknown
Mission
Spacecraft
Bus & Motor
Unknown
Mass
Unknown
Launch date (UTC)
1976-07-29 (50 years ago)
Launch vehicle
Unknown
Launch site
Air Force Western Test Range (AFWTR)
Object type
Payload
Rocket body
Debris
Shape & HBR
Unknown shape, 0.2 m
Radar Cross Section
Medium (>0.1 m² and <1 m²)

Expand to show TLE details & history
Last TLE update: 3 days ago

TLE from 3 days ago
0 DELTA 1 DEB
1 10660U 76077W   26171.17164458 -.00000162  00000-0 -18839-2 0  9995
2 10660 102.2519  55.1325 0395701  25.2467 124.0523 11.67435267124430
Epoch: 2026-06-20T04:07Z
TLE epoch observation values (Epoch: 2026-06-20T04:07:10.091Z)
Latitude
26.41568°
Longitude
-88.88558°
Altitude
2,023.282 km
Speed
6.811 km/s
True Right ascension
16h 05m 11s
True Declination
26° 17' 58"
Sunlit
Object was in daylight at epoch
Visualization orbit readout
Latitude
Unknown
Longitude
Unknown
Altitude
Unknown
Speed
Unknown
Apparent Right ascension
Unknown
Apparent Declination
Unknown
Sunlit
N/A
Visualization observer readout
Local Sidereal Time
05:24:43
Azimuth
Unknown
Elevation
Unknown
Doppler factor
Unknown
Orbital elements
Apogee altitude
2,152.425 km
Perigee altitude
1,503.012 km
Semi-major axis
8,205.855 km
Eccentricity
0.03957
Inclination
102.2519°
RAAN
55.1325°
Arg. of periapsis
25.2467°
True anomaly
127.70535°
Mean anomaly
124.0523°
Eccentric anomaly
125.88908°
Mean motion
2.91983 °/min
Orbital period
123.29 mins
BSTAR
-0.0018839
Loading maneuver chart data...
Computing Atmospheric mass density...
Loading historical data...
Loading historical data...
Loading historical data...
Loading historical data...
Loading historical data...
Loading historical data...
Loading historical data...

Documentation

Showing up to 5 results
|